Home > Weather > Feldbach > Past weeks

Flag for Austria Past Weather in Feldbach, Styria, Austria — Yesterday and Last 2 Weeks

Now
78 °F

Partly sunny.


Feels Like: 81 °F
Forecast: 65 / 78 °F
Wind: N/A

Location: Graz-Thalerhof-Flughafen

Current Time: Jun 25, 2016 at 5:58:43 PM

Latest Report: Jun 25, 2016 at 5:00 PM


Visibility: 11 mi

Pressure: 29.83 "Hg

Humidity: 72%

Dew Point: 68 °F

Location of FeldbachLocation

Past Weather in Feldbach — Graph

°F

Feldbach Temperature Yesterday

Maximum temperature yesterday: 87 °F (at 6:00 PM)
Minimum temperature yesterday: 66 °F (at 5:00 AM)
Average temperature yesterday: 77 °F

High & Low Weather Summary for the Past Weeks

 TemperatureHumidityPressure
High87 °F (Jun 24, 6:00 PM)100% (Jun 16, 2:00 AM)30.27 "Hg (Jun 16, 2:00 AM)
Low53 °F (Jun 18, 5:00 AM)26% (Jun 17, 4:00 PM)29.50 "Hg (Jun 13, 6:00 PM)
Average67 °F76%29.90 "Hg
* Reported Jun 10 4:00 PM — Jun 25 4:00 PM, Feldbach, Weather by CustomWeather, © 2016

Note: Actual official high and low records may vary slightly from our data, if they occured in-between our weather recording intervals... More about our weather records

Advertising

Feldbach Weather History for the Previous 24 Hours

Scroll right to see more
 ConditionsComfort  
Time TempWeatherWind HumidityBarometerVisibility
4:00 PM
Sat, Jun 25
82 °FPartly sunny.N/A65%29.84 "Hg12 mi
3:00 PM84 °FPartly sunny.5 mph56%29.83 "Hg11 mi
2:00 PM85 °FScattered clouds.3 mph57%29.84 "Hg7 mi
1:00 PM85 °FScattered clouds.5 mph61%29.87 "Hg7 mi
12:00 PM84 °FScattered clouds.N/A66%29.88 "Hg7 mi
11:00 AM81 °FPassing clouds.N/A71%29.89 "Hg13 mi
10:00 AM80 °FPassing clouds.N/A68%29.89 "Hg12 mi
9:00 AM78 °FPassing clouds.N/A73%29.90 "Hg11 mi
8:00 AM73 °FPassing clouds.N/A80%29.91 "Hg9 mi
7:00 AM71 °FPassing clouds.N/A87%29.92 "Hg7 mi
6:00 AM68 °FPassing clouds.N/A93%29.92 "Hg5 mi
5:00 AM67 °FMild.N/A96%29.93 "Hg3 mi
4:00 AM69 °FMild.N/A93%29.94 "Hg6 mi
3:00 AM71 °FMild.N/A89%29.95 "Hg8 mi
2:00 AM71 °FPassing clouds.N/A88%29.96 "Hg9 mi
1:00 AM73 °FPassing clouds.N/A83%29.98 "Hg11 mi
12:00 AM73 °FPassing clouds.N/A81%29.98 "Hg12 mi
11:00 PM
Fri, Jun 24
73 °FPassing clouds.N/A82%29.98 "Hg10 mi
10:00 PM75 °FPassing clouds.N/A75%29.98 "Hg12 mi
9:00 PM78 °FPassing clouds.N/A65%29.96 "Hg19 mi
8:00 PM83 °FPassing clouds.N/A60%29.95 "Hg18 mi
7:00 PM85 °FPassing clouds.N/A57%29.94 "Hg14 mi
6:00 PM87 °FPassing clouds.3 mph53%29.95 "Hg9 mi
Weather by CustomWeather, © 2016

See weather overviewHow to use our weather pages